sat.trackr.live / text

‹ back to catalog

STARLINK-2131

NORAD 47728 · 2021-017G

PAYLOAD ACTIVE UNKNOWN

§ Identity

Operator
Country
US
Launch date
2021-03-04
Launch site
AFETR
Launch vehicle
Mass (kg)
RCS (m²)

Purposes: comms

External: N2YO · Heavens-Above · Gunter

§ Orbital elements

Epoch: 2026-05-25T03:49:21.531072Z

Period
93.18 min
Inclination
53.0725°
Eccentricity
0.0006466
Mean motion
15.45382602 rev/d
Perigee alt
425.9 km
Apogee alt
434.7 km
Semi-major
6,808.4 km
B*
1.0556e-3
RAAN
203.2254°
Arg perigee
0.2461°
Mean anomaly
359.8547°
Rev number
28,966

§ Raw data

STARLINK-21311 47728U 21017G   26145.15927698  .00051177  00000+0  10556-2 0  99932 47728  53.0725 203.2254 0006466   0.2461 359.8547 15.45382602289663

JSON: /api/v1/satellites/47728 · /tle

For live sub-satellite position, see the globe view (requires WebGL).

§ Visibility from observer

Set your observer location to see the next 7 days of passes ≥ 10°. The values pass through the URL so the page stays shareable.

No JS? Fill the form by hand. The geolocation button needs JavaScript.